STARLINK-1107, 44972

Orbit data source: Space-Track

STARLINK-1107, 44972 is a payload satellite owned by SpaceX/Seattle (US) in LEO that was launched on Tue, 07 Jan 2020 UTC via an FALCON 9 launch vehicle from the Air Force Eastern Test Range (AFETR). Payload-class satellites include a variety of spacecraft equipped with specific instruments for various scientific and technological missions. These include communications satellites like Starlink; space stations such as the ISS; scientific satellites like the Hubble; Earth observation satellites from companies like Planet Labs, Umbra, and HawkEye 360; GPS; miniature CubeSats for education and research; and military/defense satellites.

Loading next visibility...
Identifier
44972, 2020-001BL
Orbit
LEO
Country
Flag of USUS
Related business
Manufacturer
SpaceX/Seattle
Mission
Partially operational Commercial Communications
Bus & Motor
STARLINK, Unknown motor
Mass
260 kg wet, ~248 kg dry
Launch date (UTC)
2020-01-07 (6 years ago)
Launch vehicle
FALCON 9
Launch site
Air Force Eastern Test Range (AFETR)
Object type
Payload
Rocket body
Debris
Shape & HBR
Box + 1 Pan, 4.4 m
Radar Cross Section
13.562 m², Large (>1 m²)

Expand to show TLE details & history
Last TLE update: 2 days ago

TLE from 2 days ago
0 STARLINK-1107
1 44972U 20001BL  25259.40787349  .00079020  00000-0  11731-2 0  9997
2 44972  53.0134 301.1564 0007845  32.1729 327.9758 15.54503257315098
Epoch: 2025-09-16T09:47Z
TLE epoch observation values (Epoch: 2025-09-16T09:47:20.269Z)
Latitude
Longitude
158.72334°
Altitude
399.981 km
Speed
7.674 km/s
True Right ascension
20h 04m 37s
True Declination
0° 00' 00"
Sunlit
Object was in full shadow at epoch
Visualization orbit readout
Latitude
Unknown
Longitude
Unknown
Altitude
Unknown
Speed
Unknown
Apparent Right ascension
Unknown
Apparent Declination
Unknown
Sunlit
N/A
Visualization observer readout
Local Sidereal Time
17:36:07
Azimuth
Unknown
Elevation
Unknown
Doppler factor
Unknown
Orbital elements
Apogee altitude
409.2 km
Perigee altitude
398.559 km
Semi-major axis
6,782.017 km
Eccentricity
0.00078
Inclination
53.0134°
RAAN
301.1564°
Arg. of periapsis
32.1729°
True anomaly
327.92809°
Mean anomaly
327.9758°
Eccentric anomaly
327.95195°
Mean motion
3.88602 °/min
Orbital period
92.64 mins
BSTAR
0.0011731
Loading maneuver chart data...
Computing Atmospheric mass density...

Documentation

Showing up to 5 results
|